Location: Driftpile
(55.3500°N, 115.7667°W)
Time: 01:52:41
(UTC+00:00)

N. Korean satellite - Pass Details

Date: 02 December 2021
Orbit: 446 x 492 km, 97.3° (Epoch: 17 January)

Event Time Altitude Azimuth Distance (km) Brightness Sun altitude
Rises 11:58:22 0° 28° (NNE) 2,481 10.6 -31.3°
Reaches altitude 10° 12:01:13 10° 54° (NE) 1,594 9.8 -30.9°
Maximum altitude 12:03:07 14° 88° (E) 1,351 9.6 -30.6°
Drops below altitude 10° 12:05:00 10° 123° (ESE) 1,579 9.7 -30.3°
Sets 12:07:47 0° 149° (SSE) 2,442 10.5 -29.9°
